Погода в Сент-Поле

США     44°56′34″N   93°06′06″W
темп.,
°C
ветер,
м/с
пор.,
м/с
влажн.,
%
обл.,
%
осадки,
мм/ч
давл.,
гПа
погр.,
м
16 октября, сб
сб1601:00+8зсз4106032 0.0 1015824
04:00+6зсз411614 0.0 1015475
07:00+6з411570 0.0 1017421
10:00+9зсз511440 0.0 1017522
13:00+14зсз610270 0.0 10171774
16:00+16зсз610240 0.0 10162105
19:00+13зсз49360 0.0 1017588
22:00+11зсз39480 0.0 1018318
17 октября, вс
вс1701:00+9зсз27570 0.0 1019201
04:00+8з26605 0.0 1019158
07:00+8з2458100 0.0 1020121
10:00+12з24465 0.0 1020296
13:00+17з35322 0.0 1019738
16:00+19зюз34250 0.0 10161214
19:00+15ююз22330 0.0 101619
22:00+13ю24430 0.0 101674
18 октября, пн
пн1801:00+12ю24500 0.0 101688
04:00+11ю25575 0.0 101698
07:00+10ююв36605 0.0 1016114
10:00+15ю47435 0.0 1016263
13:00+22ю57280 0.0 1014960
16:00+24ю57240 0.0 10121385
19:00+18ююв411400 0.0 1012340
22:00+15ююв414480 0.0 1012402
19 октября, вт
вт1901:00+13ююв4125470 0.0 1013368
04:00+12ююв3116399 0.0 1012314
07:00+12ююв3106599 0.0 1012335
10:00+15ю48530 0.0 1012430
13:00+21ююз46350 0.0 10101070
16:00+23ю35335 0.0 10091448
19:00+19ююв2348100 0.0 101049
22:00+16ююв255770 0.0 1011121
20 октября, ср
ср2001:00+15ююв266736 0.0 1011136
04:00+13юв247661 0.0 101199
07:00+12вюв3684100 0.0 1011142
10:00+15вюв347642 0.1 1011320
13:00+19юв346389 0.3 10101146
16:00+21в3449100 0.3 10071305
19:00+16сз2668100 3.3 1008534
22:00+11ссв51188100 0.4 1010558